Hourly Data Report for September 16, 2019

All times are specified in Local Standard Time (LST). Add 1 hour to adjust for Daylight Saving Time where and when it is observed.

EUREKA CLIMATE
NUNAVUT
Current Station Operator: ECCC - MSC

79°59'21.000" N
85°56'02.000" W
10.00 m
2401199
71613
NEK

Download Data

Hourly Data (September 2019)
Hourly Data Report for September 16, 2019
TIME Temp Definition
°C
Dew Point Definition
°C
Rel Hum Definition
%
Wind Dir Definition
10's deg

Wind Spd Definition
km/h
Visibility Definition
km
Stn Press Definition
kPa
Hmdx Definition


Wind Chill Definition


Weather Definition


00:00 -4.8 -5.4 95 2 8   101.94   -8 LegendNANA
01:00 -4.3 -5.0 95 10 7   101.99   -7 LegendNANA
02:00 -4.4 -4.8 97 10 4   102.02   -6 LegendNANA
03:00 -4.9 -5.4 97 5 5   102.05   -7 LegendNANA
04:00 -4.5 -4.7 99 7 6   102.11   -7 LegendNANA
05:00 -4.6 -4.7 99 1 6   102.15   -7 LegendNANA
06:00 -4.1 -4.4 98 30 5   102.17   -6 LegendNANA
07:00 -4.5 -5.0 96 1 8   102.19   -8 LegendNANA
08:00 -4.5 -5.0 96 3 8   102.19   -8 LegendNANA
09:00 -4.8 -5.1 98 1 9   102.19   -9 LegendNANA
10:00 -3.9 -4.3 97 31 6   102.20   -7 LegendNANA
11:00 -3.9 -5.1 91 35 5   102.20   -6 LegendNANA
12:00 -3.3 -4.2 94 29 11   102.20   -8 LegendNANA
13:00 -2.9 -4.1 92 28 9   102.18   -6 LegendNANA
14:00 -2.5 -3.9 90 29 8   102.20   -6 LegendNANA
15:00 -2.1 -3.5 90 28 9   102.19   -6 LegendNANA
16:00 -2.3 -3.5 91 27 9   102.20   -6 LegendNANA
17:00 -2.5 -3.4 93 2 3   102.21   -4 LegendNANA
18:00 -2.4 -3.5 92 3 4   102.21   -4 LegendNANA
19:00 -2.6 -4.2 89 4 1   102.23   -3 LegendNANA
20:00 -2.9 -4.0 92 36 4   102.23   -4 LegendNANA
21:00 -3.2 -4.3 92 36 4   102.25   -5 LegendNANA
22:00 -4.4 -4.9 96 2 10   102.27   -9 LegendNANA
23:00 -5.5 -5.7 99 1 13   102.28   -11 LegendNANA

Notes on Data Quality.

Legend

  • E = Estimated
  • M = Missing
  • NA = Not Available
Date modified: